Notices

What's New in latest Release from April 7th, 2021:

- Updated Glossary, including Speed of Maximum Gust, and Total Hourly Precipitation

- Updated national and regional climate services offices contacts and prices information

- Addition of station inventory lists for 1981-2010, 1971-2000, and 1961-1990 Normals.

If you haven't already, please take our survey and provide feedback about our website: https://eccc.sondage-survey.ca/f/LanguageSelection.aspx?s=442ca660-fcf1-47c0-95a9-59707d6fd709

Hourly Data Report for April 10, 2019

MIRAMICHI RCS
NEW BRUNSWICK
Current Station Operator: ECCC - MSC

47°00'34.000" N
65°27'54.000" W
33.00 m
8100989
71744
ACQ

Download Data

Hourly Data (April 2019)
Hourly Data Report for April 10, 2019
TIME
LST
Temp Definition
°C
Dew Point Definition
°C
Rel Hum Definition
%
Precip. Amount Definition
mm

Wind Dir Definition
10's deg

Wind Spd Definition
km/h
Visibility Definition
km
Stn Press Definition
kPa
Hmdx Definition


Wind Chill Definition


Weather Definition


00:00 -2.3 -7.7 66 0.0 23 4   100.40   -4 LegendNANA
01:00 -3.2 -5.7 83 0.0 29 5   100.31   -5 LegendNANA
02:00 -3.5 -4.9 90 0.5 28 3   100.38   -5 LegendNANA
03:00 -3.6 -5.0 90 0.3   0   100.31     LegendNANA
04:00 -3.8 -4.9 92 0.3 3 6   100.28   -6 LegendNANA
05:00 -3.9 -5.0 92 0.2 6 4   100.26   -6 LegendNANA
06:00 -4.1 -5.2 92 0.2 3 3   100.26   -5 LegendNANA
07:00 -4.0 -5.0 92 0.0 14 3   100.25   -5 LegendNANA
08:00 -2.9 -4.6 88 0.0 0 1   100.27   -3 LegendNANA
09:00 -1.8 -4.5 82 0.2 2 4   100.28   -3 LegendNANA
10:00 -0.2 -3.9 76 0.0 16 4   100.26   -1 LegendNANA
11:00 0.1 -4.5 71 0.0 25 10   100.21     LegendNANA
12:00 0.4 -4.3 70 0.0 24 9   100.18     LegendNANA
13:00 0.9 -4.5 67 0.0 32 6   100.16     LegendNANA
14:00 1.2 -3.5 71 0.0 20 6   100.14     LegendNANA
15:00 2.2 -4.4 61 0.0 21 6   100.11     LegendNANA
16:00 2.6 -3.5 64 0.0 23 14   100.12     LegendNANA
17:00 3.1 -3.8 60 0.0 24 14   100.13     LegendNANA
18:00 3.1 -3.3 63 0.0 23 11   100.16     LegendNANA
19:00 2.2 -3.8 65 0.0 25 7   100.21     LegendNANA
20:00 1.5 -3.4 69 0.2 26 6   100.25     LegendNANA
21:00 0.9 -2.9 76 0.0 23 3   100.24     LegendNANA
22:00 1.0 -3.3 73 0.0 27 8   100.27     LegendNANA
23:00 0.8 -3.3 74 0.0 27 6   100.26     LegendNANA

Notes on Data Quality.

Legend

  • E = Estimated
  • M = Missing
  • NA = Not Available*
  • [empty] = Indicates an unobserved value
Date modified: